Content
SEND FEEDBACK

Daily
Averages
Monthly
Summary
United States of America

CENTERVILLE, ARKANSAS


Home > North America > United States > Arkansas
Elevation: 370 feet     Latitude: 35 14N     Longitude: 093 10W

WEATHER
 
SELECT A DAY
Number of Records: 167,959;   Date Range: 1/12/99 - 10/20/14
 
SHARE

PRINT THIS DATA

[ ← Previous Day ]
WEATHER ALMANAC - JANUARY 23, 2013
[ Next Day → ]
[ °C ]   °F
Weather ElementAverageHighLow
Temperature40.9 °F59 °F (2:53 pm)28 °F (2:53 am)
Dewpoint29.8 °F39 °F (4:53 pm)21.9 °F (1:53 am)
Humidity67.1 %89 % (8:53 pm)41 % (2:53 pm)
Barometer30.24 in30.32 in (1:53 am)30.15 in (4:53 pm)
Wind Speed0.5 mph3.5 mph (9:53 am)
Weather ElementAverage
Visibility9.9 mi
Wind DirectionNNE (10 °)

Weather ElementTotal
Precipitation---
Heating Degree Days21.5 (Base 65)
Averaged from 23 records on January 23, 2013
WEATHER CONDITIONS BREAKOUT
WIND DIRECTION BREAKOUT
WEATHER BY HOUR - JANUARY 23, 2013
[ °C ]   °F
Local TimeTemperatureDewpointHumidityBarometerVisibilityWind DirectionWind SpeedGust SpeedPrecipitationEventsConditions
1:53 AM28.9 °F21.9 °F75 %30.32 in10.0 miCalmClear
2:53 AM28.0 °F21.9 °F78 %30.32 in10.0 miCalmClear
3:53 AM30.0 °F25.0 °F82 %30.32 in10.0 miCalmMostly Cloudy
4:53 AM32.0 °F23.0 °F69 %30.30 in10.0 miCalmOvercast
5:53 AM32.0 °F21.9 °F66 %30.30 in10.0 miCalmOvercast
6:53 AM32.0 °F21.9 °F66 %30.30 in10.0 miCalmMostly Cloudy
7:53 AM30.9 °F21.9 °F69 %30.30 in10.0 miCalmClear
8:53 AM34.0 °F23.0 °F64 %30.32 in10.0 miCalmClear
9:53 AM39.0 °F25.0 °F57 %30.31 in10.0 miVariable3.5 mphClear
10:53 AM43.0 °F26.1 °F51 %30.30 in10.0 miCalmClear
11:53 AM48.0 °F28.9 °F48 %30.27 in10.0 miCalmClear
12:53 PM51.1 °F32.0 °F48 %30.22 in10.0 miSouth (190°)3.5 mphClear
1:53 PM55.9 °F34.0 °F44 %30.19 in10.0 miCalmClear
2:53 PM59.0 °F35.1 °F41 %30.18 in10.0 miCalmClear
3:53 PM59.0 °F36.0 °F42 %30.17 in10.0 miCalmMostly Cloudy
4:53 PM57.0 °F39.0 °F51 %30.15 in10.0 miCalmClear
5:53 PM46.9 °F39.0 °F74 %30.15 in10.0 miNE (40°)3.5 mphClear
6:53 PM44.1 °F37.0 °F76 %30.17 in10.0 miCalmClear
7:53 PM39.9 °F36.0 °F86 %30.18 in10.0 miCalmClear
8:53 PM37.9 °F35.1 °F89 %30.18 in10.0 miCalmClear
9:53 PM37.0 °F34.0 °F89 %30.19 in10.0 miCalmClear
10:53 PM37.0 °F34.0 °F89 %30.20 in9.0 miCalmClear
11:53 PM37.0 °F34.0 °F89 %30.20 in9.0 miCalmMostly Cloudy
Hourly data recorded from KRUE, located miles away from Centerville, Arkansas







STORIES FROM OUR PARTNERS